Location: Moscow
(55.7500°N, 37.5830°E)
Time: 08:17:08
(UTC+03:00)

A-11 Canister half - Pass Details

Date: 01 December 2021
Orbit: 1524 x 1684 km, 47.3° (Epoch: 17 January)

Event Time Altitude Azimuth Distance (km) Brightness Sun altitude
Exits shadow 01:28:22 11° 96° (E) 3,835 11.2 -53.6°
Drops below altitude 10° 01:28:51 10° 94° (E) 3,919 11.2 -53.6°
Sets 01:33:19 0° 77° (ENE) 4,887 12.0 -53.3°
